GW4412 Weather Reports


time (UTC)temp
F
wind
direction
speed
knots
gust
knots
rain 1hr
in
rain 24hr
in
rain mn
in
humidity
%
barometer
mb
20260902060513 84 66 0.0 0.0 0.00 0.00 0.00 40 1017.0
20260902060012 84 66 0.0 0.0 0.00 0.00 0.00 40 1017.0
20260902055512 85 101 0.0 0.0 0.00 0.00 0.00 40 1017.0
20260902055013 85 59 0.0 0.0 0.00 0.00 0.00 42 1017.0
20260902054512 84 168 2.6 2.6 0.00 0.00 0.00 42 1017.0
20260902054012 84 134 1.7 1.7 0.00 0.00 0.00 44 1017.0
20260902053512 83 95 0.0 0.0 0.00 0.00 0.00 44 1017.0
20260902053012 83 114 0.0 0.0 0.00 0.00 0.00 45 1017.0
20260902052512 82 120 0.0 0.0 0.00 0.00 0.00 46 1017.0
20260902052012 82 59 0.0 0.0 0.00 0.00 0.00 47 1017.0
20260902051512 82 177 0.9 0.9 0.00 0.00 0.00 47 1017.0
20260902051013 81 113 0.0 0.0 0.00 0.00 0.00 47 1017.0
20260902050512 81 113 0.0 0.0 0.00 0.00 0.00 48 1017.0
20260902050012 81 113 0.0 0.0 0.00 0.00 0.00 49 1017.0
20260902045513 80 70 0.0 0.0 0.00 0.00 0.00 49 1017.0
20260902045017 80 352 0.0 0.0 0.00 0.00 0.00 49 1017.0
20260902044512 80 352 0.0 0.0 0.00 0.00 0.00 50 1017.0
20260902044012 79 348 0.9 0.9 0.00 0.00 0.00 50 1017.0
20260902043512 79 346 0.0 0.0 0.00 0.00 0.00 51 1016.0
20260902043012 79 346 0.0 0.0 0.00 0.00 0.00 50 1017.0
20260902042512 79 48 0.0 0.0 0.00 0.00 0.00 51 1016.0
20260902042013 79 108 0.0 0.0 0.00 0.00 0.00 50 1016.0
20260902041512 79 136 0.0 0.0 0.00 0.00 0.00 51 1016.0
20260902041012 78 136 1.7 1.7 0.00 0.00 0.00 50 1016.0
20260902040512 78 355 0.0 0.0 0.00 0.00 0.00 52 1016.0
20260902040014 78 355 0.0 0.0 0.00 0.00 0.00 52 1016.0
20260902035512 78 120 0.0 0.0 0.00 0.00 0.00 52 1016.0
20260902035013 78 2 0.0 0.0 0.00 0.00 0.00 51 1016.0
20260902034513 78 2 0.0 0.0 0.00 0.00 0.00 50 1016.0
20260902034013 78 2 0.0 0.0 0.00 0.00 0.00 50 1016.0
20260902033512 79 2 0.0 0.0 0.00 0.00 0.00 49 1016.0
20260902033014 79 103 0.0 0.0 0.00 0.00 0.00 50 1016.0
20260902032512 79 103 0.0 0.0 0.00 0.00 0.00 51 1016.0
20260902032015 79 343 0.0 0.0 0.00 0.00 0.00 49 1016.0
20260902031513 79 343 0.0 0.0 0.00 0.00 0.00 50 1016.0
20260902031012 79 343 0.0 0.0 0.00 0.00 0.00 48 1016.0
20260902030513 79 343 0.0 0.0 0.00 0.00 0.00 50 1016.0
20260902030012 78 138 0.0 0.0 0.00 0.00 0.00 50 1016.0
20260902025514 78 138 0.0 0.0 0.00 0.00 0.00 52 1016.0
20260902025012 79 138 0.0 0.0 0.00 0.00 0.00 51 1016.0
20260902024515 79 138 0.0 0.0 0.00 0.00 0.00 51 1016.0
20260902024012 79 138 0.0 0.0 0.00 0.00 0.00 51 1016.0
20260902023513 80 138 0.0 0.0 0.00 0.00 0.00 50 1016.0
20260902023012 80 138 0.0 0.0 0.00 0.00 0.00 50 1016.0
20260902022513 80 162 0.0 0.0 0.00 0.00 0.00 49 1016.0
20260902022012 80 162 0.0 0.0 0.00 0.00 0.00 50 1016.0
20260902021514 81 162 1.7 1.7 0.00 0.00 0.00 49 1016.0
20260902021012 81 356 0.9 0.9 0.00 0.00 0.00 48 1016.0
20260902020512 81 64 0.0 0.0 0.00 0.00 0.00 49 1016.0
20260902020012 81 63 0.0 0.0 0.00 0.00 0.00 49 1016.0
20260902015512 80 120 0.0 0.0 0.00 0.00 0.00 49 1016.0
20260902015012 80 102 0.0 0.0 0.00 0.00 0.00 50 1016.0
20260902014513 79 60 2.6 2.6 0.00 0.00 0.00 51 1016.0
20260902014013 79 108 1.7 1.7 0.00 0.00 0.00 52 1016.0
20260902013515 79 120 0.0 0.0 0.00 0.00 0.00 52 1016.0
20260902013012 79 108 0.0 0.0 0.00 0.00 0.00 52 1016.0
20260902012512 79 139 0.0 0.0 0.00 0.00 0.00 53 1016.0
20260902012012 79 131 0.0 0.0 0.00 0.00 0.00 52 1016.0
20260902011512 79 197 0.0 0.0 0.00 0.00 0.00 50 1016.0
20260902011014 79 60 0.0 0.0 0.00 0.00 0.00 51 1016.0
20260902010514 80 60 0.0 0.0 0.00 0.00 0.00 51 1016.0
20260902010012 80 60 0.0 0.0 0.00 0.00 0.00 51 1016.0
20260902005512 80 60 0.0 0.0 0.00 0.00 0.00 51 1016.0
20260902005012 80 60 0.0 0.0 0.00 0.00 0.00 50 1016.0
20260902004512 80 60 0.0 0.0 0.00 0.00 0.00 50 1016.0
20260902004012 80 156 0.0 0.0 0.00 0.00 0.00 49 1016.0
20260902003512 80 156 0.0 0.0 0.00 0.00 0.00 50 1016.0
20260902003012 80 108 1.7 1.7 0.00 0.00 0.00 50 1016.0
20260902002513 80 60 0.0 0.0 0.00 0.00 0.00 50 1016.0
20260902002013 80 48 0.0 0.0 0.00 0.00 0.00 50 1016.0
20260902001513 80 76 0.0 0.0 0.00 0.00 0.00 50 1016.0
20260902001012 80 144 0.0 0.0 0.00 0.00 0.00 51 1016.0
20260902000512 80 120 1.7 1.7 0.00 0.00 0.00 51 1016.0
20260902000012 80 21 0.0 0.0 0.00 0.00 0.00 51 1016.0
20260901235513 80 85 3.5 3.5 0.00 0.00 0.00 50 1016.0
20260901235012 81 120 0.0 0.0 0.00 0.00 0.00 50 1016.0
20260901234512 81 108 0.9 0.9 0.00 0.00 0.00 49 1016.0
20260901234012 81 103 0.0 0.0 0.00 0.00 0.00 49 1016.0
20260901233512 81 84 0.0 0.0 0.00 0.00 0.00 49 1016.0
20260901233012 81 132 0.0 0.0 0.00 0.00 0.00 49 1016.0
20260901232513 80 72 0.0 0.0 0.00 0.00 0.00 49 1016.0
20260901232012 80 360 0.0 0.0 0.00 0.00 0.00 49 1016.0
20260901231512 80 360 0.0 0.0 0.00 0.00 0.00 50 1016.0
20260901231012 80 360 0.0 0.0 0.00 0.00 0.00 49 1016.0
20260901230512 80 360 0.0 0.0 0.00 0.00 0.00 48 1016.0
20260901230016 80 359 0.0 0.0 0.00 0.00 0.00 48 1016.0
20260901225512 80 359 0.0 0.0 0.00 0.00 0.00 48 1016.0
20260901225012 80 358 0.0 0.0 0.00 0.00 0.00 46 1016.0
20260901224512 81 358 0.0 0.0 0.00 0.00 0.00 45 1016.0
20260901224012 81 12 0.0 0.0 0.00 0.00 0.00 44 1016.0
20260901223513 81 12 0.0 0.0 0.00 0.00 0.00 45 1016.0
20260901223012 81 12 0.0 0.0 0.00 0.00 0.00 45 1016.0
20260901222512 81 13 0.0 0.0 0.00 0.00 0.00 45 1016.0
20260901222012 81 14 0.0 0.0 0.00 0.00 0.00 45 1016.0
20260901221513 82 14 0.0 0.0 0.00 0.00 0.00 45 1016.0
20260901221012 82 14 0.0 0.0 0.00 0.00 0.00 46 1016.0
20260901220513 82 13 0.0 0.0 0.00 0.00 0.00 45 1016.0
20260901220013 82 14 0.0 0.0 0.00 0.00 0.00 45 1016.0
20260901215512 83 18 0.0 0.0 0.00 0.00 0.00 45 1016.0
20260901215014 83 18 0.0 0.0 0.00 0.00 0.00 45 1016.0
20260901214512 83 18 0.0 0.0 0.00 0.00 0.00 45 1016.0
20260901214012 83 18 0.0 0.0 0.00 0.00 0.00 45 1016.0
20260901213512 83 8 0.9 0.9 0.00 0.00 0.00 45 1016.0
20260901213012 83 76 0.0 0.0 0.00 0.00 0.00 45 1016.0
20260901212513 83 76 0.0 0.0 0.00 0.00 0.00 44 1016.0
20260901212012 83 77 0.0 0.0 0.00 0.00 0.00 44 1016.0
20260901211513 83 78 0.0 0.0 0.00 0.00 0.00 45 1016.0
20260901211012 83 78 0.0 0.0 0.00 0.00 0.00 44 1016.0
20260901210512 83 30 0.0 0.0 0.00 0.00 0.00 43 1016.0
20260901210012 83 30 0.0 0.0 0.00 0.00 0.00 42 1016.0
20260901205512 83 24 0.0 0.0 0.00 0.00 0.00 41 1016.0
20260901205012 84 24 0.0 0.0 0.00 0.00 0.00 41 1016.0
20260901204512 84 24 0.0 0.0 0.00 0.00 0.00 41 1016.0
20260901204012 84 24 0.0 0.0 0.00 0.00 0.00 41 1016.0
20260901203511 84 360 0.0 0.0 0.00 0.00 0.00 40 1016.0
20260901203013 84 360 0.0 0.0 0.00 0.00 0.00 40 1016.0
20260901202514 85 344 0.0 0.0 0.00 0.00 0.00 39 1016.0
20260901202013 85 349 0.0 0.0 0.00 0.00 0.00 40 1016.0
20260901201513 85 24 0.0 0.0 0.00 0.00 0.00 40 1016.0
20260901201012 85 18 0.0 0.0 0.00 0.00 0.00 40 1016.0
20260901200512 85 11 1.7 1.7 0.00 0.00 0.00 40 1016.0
20260901200013 85 62 0.0 0.0 0.00 0.00 0.00 40 1016.0
20260901195514 85 63 0.0 0.0 0.00 0.00 0.00 37 1016.0
20260901195013 85 355 0.9 0.9 0.00 0.00 0.00 37 1016.0
20260901194512 86 13 0.0 0.0 0.00 0.00 0.00 37 1016.0
20260901194012 86 13 1.7 1.7 0.00 0.00 0.00 37 1016.0
20260901193514 86 359 0.0 0.0 0.00 0.00 0.00 38 1016.0
20260901193012 86 356 0.0 0.0 0.00 0.00 0.00 41 1016.0
20260901192513 86 356 0.0 0.0 0.00 0.00 0.00 40 1015.0
20260901192012 86 360 0.0 0.0 0.00 0.00 0.00 39 1016.0
20260901191513 87 58 0.0 0.0 0.00 0.00 0.00 40 1016.0
20260901191015 87 58 0.0 0.0 0.00 0.00 0.00 40 1016.0
20260901190512 87 360 0.0 0.0 0.00 0.00 0.00 38 1016.0
20260901190013 87 360 0.0 0.0 0.00 0.00 0.00 39 1016.0
20260901185514 87 359 0.0 0.0 0.00 0.00 0.00 37 1015.0
20260901185012 87 36 0.0 0.0 0.00 0.00 0.00 39 1016.0
20260901184513 87 33 0.0 0.0 0.00 0.00 0.00 37 1015.0
20260901184015 87 19 1.7 1.7 0.00 0.00 0.00 36 1015.0
20260901183513 87 12 1.7 1.7 0.00 0.00 0.00 37 1016.0
20260901183012 87 24 0.0 0.0 0.00 0.00 0.00 37 1015.0
20260901182512 88 12 0.0 0.0 0.00 0.00 0.00 37 1015.0
20260901182012 88 156 0.0 0.0 0.00 0.00 0.00 38 1015.0
20260901181513 88 60 0.0 0.0 0.00 0.00 0.00 38 1015.0
20260901181012 88 60 0.0 0.0 0.00 0.00 0.00 38 1015.0
20260901180513 88 319 0.0 0.0 0.00 0.00 0.00 38 1015.0
20260901180013 88 328 0.0 0.0 0.00 0.00 0.00 37 1015.0
20260901175514 88 348 0.0 0.0 0.00 0.00 0.00 39 1015.0
20260901175013 88 360 0.0 0.0 0.00 0.00 0.00 40 1015.0
20260901174513 89 360 0.9 0.9 0.00 0.00 0.00 39 1015.0
20260901174017 89 12 3.5 3.5 0.00 0.00 0.00 39 1015.0
20260901173512 89 5 3.5 3.5 0.00 0.00 0.00 38 1015.0
20260901173012 90 11 2.6 2.6 0.00 0.00 0.00 37 1015.0
20260901172512 90 5 1.7 1.7 0.00 0.00 0.00 38 1015.0
20260901172014 90 357 0.0 0.0 0.00 0.00 0.00 38 1015.0
20260901171512 91 354 2.6 2.6 0.00 0.00 0.00 38 1015.0
20260901171012 91 13 0.0 0.0 0.00 0.00 0.00 37 1015.0
20260901170513 91 36 4.3 4.3 0.00 0.00 0.00 37 1014.0
20260901170013 91 351 0.9 0.9 0.00 0.00 0.00 37 1014.0
20260901165513 92 24 1.7 1.7 0.00 0.00 0.00 36 1015.0
20260901165015 92 12 0.0 0.0 0.00 0.00 0.00 35 1014.0
20260901164513 92 357 2.6 2.6 0.00 0.00 0.00 34 1014.0
20260901164013 92 343 0.0 0.0 0.00 0.00 0.00 34 1014.0
20260901163513 92 67 1.7 1.7 0.00 0.00 0.00 34 1014.0
20260901163012 93 83 0.0 0.0 0.00 0.00 0.00 34 1014.0
20260901162513 93 107 0.9 0.9 0.00 0.00 0.00 34 1014.0
20260901162012 93 90 1.7 1.7 0.00 0.00 0.00 33 1014.0
20260901161512 93 84 3.5 4.3 0.00 0.00 0.00 33 1014.0
20260901161013 93 90 4.3 4.3 0.00 0.00 0.00 33 1014.0
20260901160512 93 106 7.0 7.8 0.00 0.00 0.00 33 1014.0
20260901160013 92 93 2.6 2.6 0.00 0.00 0.00 32 1014.0
20260901155513 92 138 3.5 3.5 0.00 0.00 0.00 32 1014.0
20260901155014 93 78 0.9 0.9 0.00 0.00 0.00 31 1014.0
20260901154512 93 88 2.6 2.6 0.00 0.00 0.00 31 1014.0
20260901154014 93 72 4.3 4.3 0.00 0.00 0.00 31 1014.0
20260901153513 93 47 4.3 4.3 0.00 0.00 0.00 30 1014.0
20260901153012 93 96 3.5 3.5 0.00 0.00 0.00 31 1014.0
20260901152513 93 78 3.5 4.3 0.00 0.00 0.00 31 1014.0
20260901152015 93 132 4.3 5.2 0.00 0.00 0.00 31 1014.0
20260901151512 93 76 2.6 2.6 0.00 0.00 0.00 32 1014.0
20260901151012 94 50 3.5 3.5 0.00 0.00 0.00 31 1014.0
20260901150513 94 66 3.5 3.5 0.00 0.00 0.00 31 1014.0
20260901150014 94 62 2.6 2.6 0.00 0.00 0.00 31 1014.0
20260901145512 94 48 2.6 2.6 0.00 0.00 0.00 32 1014.0
20260901145012 94 87 2.6 2.6 0.00 0.00 0.00 31 1014.0
20260901144513 94 72 4.3 4.3 0.00 0.00 0.00 31 1014.0
20260901144017 94 101 5.2 6.1 0.00 0.00 0.00 31 1014.0
20260901143512 94 100 6.1 7.0 0.00 0.00 0.00 31 1014.0
20260901143013 94 127 3.5 3.5 0.00 0.00 0.00 31 1014.0
20260901142512 94 43 2.6 2.6 0.00 0.00 0.00 31 1014.0
20260901142012 94 76 4.3 4.3 0.00 0.00 0.00 31 1014.0
20260901141512 94 76 4.3 4.3 0.00 0.00 0.00 31 1014.0
20260901141015 94 82 2.6 3.5 0.00 0.00 0.00 30 1014.0
20260901140512 94 138 1.7 1.7 0.00 0.00 0.00 30 1014.0
20260901140012 95 94 6.1 6.1 0.00 0.00 0.00 30 1014.0
20260901135512 95 66 2.6 2.6 0.00 0.00 0.00 29 1014.0
20260901135012 95 102 7.8 7.8 0.00 0.00 0.00 30 1014.0
20260901134512 96 270 0.0 0.0 0.00 0.00 0.00 28 1014.0
20260901134013 96 174 0.0 0.0 0.00 0.00 0.00 29 1014.0
20260901133513 95 340 1.7 1.7 0.00 0.00 0.00 30 1014.0
20260901133014 96 138 4.3 4.3 0.00 0.00 0.00 29 1014.0
20260901132519 95 312 2.6 2.6 0.00 0.00 0.00 29 1014.0
20260901132013 95 113 0.0 0.0 0.00 0.00 0.00 30 1014.0
20260901131512 95 132 3.5 3.5 0.00 0.00 0.00 30 1014.0
20260901131014 96 186 4.3 4.3 0.00 0.00 0.00 29 1014.0
20260901130512 95 198 3.5 3.5 0.00 0.00 0.00 29 1014.0
20260901130012 94 132 2.6 2.6 0.00 0.00 0.00 30 1014.0
20260901125513 94 306 0.0 0.0 0.00 0.00 0.00 29 1014.0
20260901125015 94 276 3.5 3.5 0.00 0.00 0.00 31 1014.0
20260901124513 96 78 7.0 7.8 0.00 0.00 0.00 29 1014.0
20260901124012 96 358 2.6 3.5 0.00 0.00 0.00 28 1014.0
20260901123512 96 222 1.7 1.7 0.00 0.00 0.00 28 1014.0
20260901123012 94 162 0.0 0.0 0.00 0.00 0.00 29 1015.0
20260901122512 94 348 3.5 3.5 0.00 0.00 0.00 31 1015.0
20260901122013 95 360 2.6 3.5 0.00 0.00 0.00 29 1014.0
20260901121513 96 240 0.9 0.9 0.00 0.00 0.00 28 1015.0
20260901121012 96 222 1.7 1.7 0.00 0.00 0.00 27 1015.0
20260901120513 95 180 2.6 2.6 0.00 0.00 0.00 28 1015.0
20260901120013 96 78 0.0 0.0 0.00 0.00 0.00 29 1015.0
20260901115513 94 150 0.9 0.9 0.00 0.00 0.00 29 1015.0
20260901115012 94 293 3.5 4.3 0.00 0.00 0.00 30 1015.0
20260901114512 95 282 2.6 2.6 0.00 0.00 0.00 30 1015.0
20260901114012 94 258 3.5 3.5 0.00 0.00 0.00 30 1015.0
20260901113512 93 186 5.2 6.1 0.00 0.00 0.00 31 1015.0
20260901113012 94 264 3.5 3.5 0.00 0.00 0.00 30 1015.0
20260901112512 95 276 2.6 2.6 0.00 0.00 0.00 29 1015.0
20260901112013 95 240 3.5 4.3 0.00 0.00 0.00 29 1015.0
20260901111514 94 240 1.7 1.7 0.00 0.00 0.00 30 1015.0
20260901111012 94 223 0.0 0.0 0.00 0.00 0.00 30 1015.0
20260901110512 94 192 3.5 3.5 0.00 0.00 0.00 31 1015.0
20260901110012 94 168 1.7 1.7 0.00 0.00 0.00 30 1015.0
20260901105513 94 174 2.6 2.6 0.00 0.00 0.00 30 1015.0
20260901105013 94 168 2.6 3.5 0.00 0.00 0.00 30 1015.0
20260901104513 94 198 4.3 4.3 0.00 0.00 0.00 30 1015.0
20260901104012 94 216 2.6 2.6 0.00 0.00 0.00 31 1015.0
20260901103512 94 288 1.7 1.7 0.00 0.00 0.00 31 1015.0
20260901103012 94 162 0.0 0.0 0.00 0.00 0.00 30 1015.0
20260901102512 93 287 0.9 0.9 0.00 0.00 0.00 32 1015.0
20260901102012 92 174 2.6 2.6 0.00 0.00 0.00 32 1015.0
20260901101513 92 174 3.5 4.3 0.00 0.00 0.00 33 1016.0
20260901101012 93 132 2.6 2.6 0.00 0.00 0.00 32 1015.0
20260901100512 92 178 5.2 5.2 0.00 0.00 0.00 33 1016.0
20260901100013 91 186 3.5 3.5 0.00 0.00 0.00 34 1015.0
20260901095512 92 156 3.5 3.5 0.00 0.00 0.00 34 1015.0
20260901095012 91 296 0.0 0.0 0.00 0.00 0.00 34 1015.0
20260901094513 92 211 5.2 6.1 0.00 0.00 0.00 33 1016.0
20260901094013 92 276 1.7 1.7 0.00 0.00 0.00 33 1016.0
20260901093513 92 280 0.9 0.9 0.00 0.00 0.00 34 1016.0
20260901093012 92 276 2.6 2.6 0.00 0.00 0.00 34 1016.0
20260901092513 92 197 1.7 1.7 0.00 0.00 0.00 32 1016.0
20260901092012 91 204 2.6 2.6 0.00 0.00 0.00 34 1016.0
20260901091513 90 180 3.5 3.5 0.00 0.00 0.00 33 1016.0
20260901091013 90 185 2.6 2.6 0.00 0.00 0.00 34 1016.0
20260901090512 89 174 4.3 4.3 0.00 0.00 0.00 35 1016.0
20260901090015 89 180 2.6 2.6 0.00 0.00 0.00 35 1016.0
20260901085514 90 198 4.3 4.3 0.00 0.00 0.00 35 1016.0
20260901085012 90 186 4.3 4.3 0.00 0.00 0.00 35 1016.0
20260901084513 90 174 4.3 4.3 0.00 0.00 0.00 35 1016.0
20260901084013 89 186 4.3 4.3 0.00 0.00 0.00 36 1016.0
20260901083513 89 196 5.2 5.2 0.00 0.00 0.00 36 1016.0
20260901083013 90 206 3.5 3.5 0.00 0.00 0.00 37 1016.0
20260901082512 89 178 1.7 1.7 0.00 0.00 0.00 37 1016.0
20260901082012 90 203 0.0 0.0 0.00 0.00 0.00 36 1016.0
20260901081512 89 179 2.6 2.6 0.00 0.00 0.00 37 1016.0
20260901081012 90 210 0.0 0.0 0.00 0.00 0.00 36 1016.0
20260901080512 90 180 1.7 1.7 0.00 0.00 0.00 37 1016.0
20260901080012 90 282 2.6 2.6 0.00 0.00 0.00 36 1016.0
20260901075512 89 228 1.7 1.7 0.00 0.00 0.00 36 1016.0
20260901075012 89 186 2.6 3.5 0.00 0.00 0.00 37 1016.0
20260901074516 89 191 2.6 2.6 0.00 0.00 0.00 37 1015.0
20260901074012 88 186 0.0 0.0 0.00 0.00 0.00 34 1016.0
20260901073514 88 132 0.0 0.0 0.00 0.00 0.00 34 1016.0
20260901073014 87 76 2.6 2.6 0.00 0.00 0.00 35 1015.0
20260901072514 86 264 0.0 0.0 0.00 0.00 0.00 36 1015.0
20260901072012 86 357 0.0 0.0 0.00 0.00 0.00 35 1016.0
20260901071512 85 318 0.0 0.0 0.00 0.00 0.00 36 1016.0
20260901071012 87 156 0.0 0.0 0.00 0.00 0.00 35 1016.0
20260901070512 86 168 0.0 0.0 0.00 0.00 0.00 35 1015.0
20260901070012 85 174 0.0 0.0 0.00 0.00 0.00 36 1015.0
20260901065512 85 94 0.0 0.0 0.00 0.00 0.00 36 1016.0
20260901065012 86 252 0.0 0.0 0.00 0.00 0.00 37 1016.0
20260901064512 86 94 0.0 0.0 0.00 0.00 0.00 38 1016.0
20260901064013 85 144 0.9 0.9 0.00 0.00 0.00 38 1016.0
20260901063513 84 114 0.0 0.0 0.00 0.00 0.00 40 1016.0
20260901063013 84 150 2.6 2.6 0.00 0.00 0.00 40 1016.0
20260901062512 84 287 0.0 0.0 0.00 0.00 0.00 40 1016.0
20260901062013 83 291 0.0 0.0 0.00 0.00 0.00 42 1016.0
20260901061513 83 270 0.0 0.0 0.00 0.00 0.00 41 1016.0
20260901061014 83 270 0.0 0.0 0.00 0.00 0.00 42 1016.0